Location: Dana
(41.8364°N, 106.7042°W)
Time: 02:14:32
(UTC+00:00)

Altair - Pass Details

Date: 11 May 2026
Orbit: 1501 x 1682 km, 47.2° (Epoch: 6 June)

Event Time Altitude Azimuth Distance (km) Brightness Sun altitude
Rises 14:24:33 0° 254° (WSW) 4,871 9.6 26.9°
Reaches altitude 10° 14:27:41 10° 256° (WSW) 3,903 9.2 27.5°
Maximum altitude 14:37:47 76° 342° (NNW) 1,725 8.2 29.3°
Drops below altitude 10° 14:48:00 10° 69° (ENE) 3,941 10.8 31.3°
Sets 14:51:10 0° 71° (ENE) 4,921 11.1 31.8°
